RYR238A LEMD-GCFV

Flight info

Callsign RYR238A
Flight time N/A
Altitude 33000
Route VTB N10 HIJ DCT SVL N857 KORNO UN857 TERTO
Aircraft B738/M-SDE2E3FGHIRWXY/LB1

Departure

Time N/A
Airport Adolfo Suárez Madrid–Barajas Airport (LEMD)

Arrival

Time 2026-05-05 17:05
Airport Fuerteventura Airport (GCFV)
Time Latitude Longitude Altitude Speed Heading
2026-05-05 16:29 33.77742 -9.42417 33067 ft 456 kts 220°
2026-05-05 16:29 33.57840 -9.61212 33084 ft 457 kts 220°
2026-05-05 16:30 33.18310 -9.98000 33078 ft 442 kts 220°
2026-05-05 16:30 32.80172 -10.33237 33060 ft 434 kts 220°
2026-05-05 16:31 32.42394 -10.67660 32972 ft 422 kts 221°
2026-05-05 16:31 32.24152 -10.84083 33024 ft 409 kts 221°
2026-05-05 16:31 32.06285 -11.00166 33057 ft 400 kts 222°
2026-05-05 16:32 31.71100 -11.31598 33060 ft 394 kts 223°
2026-05-05 16:32 31.53039 -11.47705 33047 ft 394 kts 223°
2026-05-05 16:33 31.48708 -11.51527 33052 ft 391 kts 223°
2026-05-05 16:33 31.44368 -11.55364 33050 ft 390 kts 223°
2026-05-05 16:34 31.40041 -11.59191 33049 ft 390 kts 223°
2026-05-05 16:34 31.35715 -11.63013 33052 ft 390 kts 223°
2026-05-05 16:35 31.31379 -11.66839 33050 ft 391 kts 223°
2026-05-05 16:35 31.27039 -11.70663 33049 ft 391 kts 223°
2026-05-05 16:36 31.16029 -11.80340 33036 ft 385 kts 223°
2026-05-05 16:36 30.99002 -11.95261 33050 ft 382 kts 223°
2026-05-05 16:37 30.82072 -12.10025 33039 ft 379 kts 223°
2026-05-05 16:37 30.59998 -12.29167 33024 ft 379 kts 224°
2026-05-05 16:38 30.54600 -12.33842 33039 ft 379 kts 224°
2026-05-05 16:38 30.50402 -12.37469 33043 ft 379 kts 224°
2026-05-05 16:39 30.46159 -12.41116 33043 ft 380 kts 223°
2026-05-05 16:39 30.41657 -12.44979 33040 ft 380 kts 223°
2026-05-05 16:40 30.09024 -12.72853 33059 ft 383 kts 222°
2026-05-05 16:40 30.03319 -12.76745 33046 ft 392 kts 215°
2026-05-05 16:41 29.98474 -12.79531 33041 ft 391 kts 215°
2026-05-05 16:41 29.93664 -12.82449 33040 ft 390 kts 216°
2026-05-05 16:42 29.88909 -12.85443 33037 ft 389 kts 217°
2026-05-05 16:42 29.84171 -12.88462 33036 ft 389 kts 217°
2026-05-05 16:43 29.79469 -12.91461 33035 ft 389 kts 217°
2026-05-05 16:43 29.74727 -12.94480 33006 ft 389 kts 217°
2026-05-05 16:44 29.70024 -12.97471 33030 ft 389 kts 217°
2026-05-05 16:44 29.65277 -13.00487 33036 ft 390 kts 217°
2026-05-05 16:45 29.60531 -13.03498 33033 ft 391 kts 217°
2026-05-05 16:45 29.55771 -13.06514 33032 ft 391 kts 217°
2026-05-05 16:46 29.51035 -13.09513 33033 ft 391 kts 217°
2026-05-05 16:46 29.46273 -13.12525 33032 ft 391 kts 217°
2026-05-05 16:47 29.43888 -13.14033 32778 ft 394 kts 216°
2026-05-05 16:47 29.41479 -13.15556 32091 ft 393 kts 216°
2026-05-05 16:47 29.39098 -13.17056 31466 ft 390 kts 216°
2026-05-05 16:47 29.36719 -13.18556 30722 ft 391 kts 216°
2026-05-05 16:48 29.34297 -13.19999 29940 ft 394 kts 213°
2026-05-05 16:48 29.31821 -13.21359 29039 ft 396 kts 212°
2026-05-05 16:48 29.29324 -13.22698 28166 ft 397 kts 212°
2026-05-05 16:48 29.26817 -13.24049 27254 ft 398 kts 212°
2026-05-05 16:49 29.24319 -13.25411 26348 ft 400 kts 212°
2026-05-05 16:49 29.21806 -13.26789 25548 ft 399 kts 212°
2026-05-05 16:49 29.19329 -13.28148 24892 ft 402 kts 212°
2026-05-05 16:49 29.16799 -13.29537 24224 ft 405 kts 212°
2026-05-05 16:50 29.14248 -13.30935 23499 ft 407 kts 211°
2026-05-05 16:50 29.11705 -13.32324 22736 ft 403 kts 211°
2026-05-05 16:50 29.09189 -13.33696 22032 ft 399 kts 211°
2026-05-05 16:50 29.06697 -13.35056 21356 ft 395 kts 211°
2026-05-05 16:51 29.04226 -13.36405 20700 ft 392 kts 211°
2026-05-05 16:51 29.01768 -13.37747 20046 ft 390 kts 211°
2026-05-05 16:51 28.99327 -13.39080 19396 ft 389 kts 211°
2026-05-05 16:51 28.96883 -13.40415 18738 ft 389 kts 211°
2026-05-05 16:52 28.94439 -13.41749 18045 ft 389 kts 211°
2026-05-05 16:52 28.91997 -13.43081 17337 ft 388 kts 211°
2026-05-05 16:52 28.89566 -13.44405 16667 ft 387 kts 211°
2026-05-05 16:52 28.87143 -13.45724 16014 ft 385 kts 211°
2026-05-05 16:53 28.84761 -13.47020 15372 ft 384 kts 211°
2026-05-05 16:53 28.82358 -13.48327 14756 ft 382 kts 210°
2026-05-05 16:53 28.79967 -13.49627 14127 ft 380 kts 210°
2026-05-05 16:53 28.77579 -13.50924 13434 ft 379 kts 210°
2026-05-05 16:54 28.75219 -13.52206 12778 ft 374 kts 210°
2026-05-05 16:54 28.72876 -13.53477 12148 ft 370 kts 209°
2026-05-05 16:54 28.70565 -13.54731 11549 ft 366 kts 209°
2026-05-05 16:54 28.68276 -13.55973 11205 ft 360 kts 209°
2026-05-05 16:55 28.66040 -13.57184 11087 ft 356 kts 209°
2026-05-05 16:55 28.63845 -13.58373 11022 ft 343 kts 209°
2026-05-05 16:55 28.61738 -13.59512 10967 ft 328 kts 209°
2026-05-05 16:55 28.59708 -13.60612 10689 ft 321 kts 209°
2026-05-05 16:56 28.57725 -13.61688 10231 ft 320 kts 208°
2026-05-05 16:56 28.55714 -13.62777 9856 ft 317 kts 208°
2026-05-05 16:56 28.53711 -13.63861 9203 ft 321 kts 208°
2026-05-05 16:56 28.51669 -13.64919 8662 ft 323 kts 206°
2026-05-05 16:57 28.49597 -13.65924 8173 ft 323 kts 205°
2026-05-05 16:57 28.47525 -13.66911 7682 ft 323 kts 205°
2026-05-05 16:57 28.45457 -13.67898 7203 ft 321 kts 205°
2026-05-05 16:57 28.43412 -13.68882 6728 ft 317 kts 206°
2026-05-05 16:58 28.41390 -13.69859 6250 ft 314 kts 205°
2026-05-05 16:58 28.39394 -13.70822 5755 ft 312 kts 205°
2026-05-05 16:58 28.37413 -13.71797 5255 ft 309 kts 205°
2026-05-05 16:58 28.35462 -13.72775 4912 ft 303 kts 205°
2026-05-05 16:59 28.33559 -13.73734 4589 ft 297 kts 205°
2026-05-05 16:59 28.32320 -13.74358 4376 ft 293 kts 205°
2026-05-05 16:59 28.30480 -13.75284 4071 ft 286 kts 205°
2026-05-05 16:59 28.28681 -13.76199 3776 ft 281 kts 205°
2026-05-05 17:00 28.26394 -13.77659 2898 ft 297 kts 219°
2026-05-05 17:00 28.25124 -13.79455 2585 ft 290 kts 249°
2026-05-05 17:00 28.24807 -13.80921 2434 ft 276 kts 271°
2026-05-05 17:00 28.25152 -13.82897 2466 ft 248 kts 300°
2026-05-05 17:01 28.26146 -13.84378 2360 ft 229 kts 323°
2026-05-05 17:01 28.27420 -13.85305 2367 ft 207 kts 338°
2026-05-05 17:01 28.28682 -13.85913 2371 ft 188 kts 341°
2026-05-05 17:01 28.29869 -13.86400 2348 ft 177 kts 347°
2026-05-05 17:02 28.31071 -13.86641 2278 ft 174 kts 357°
2026-05-05 17:02 28.32275 -13.86744 2200 ft 174 kts 359°
2026-05-05 17:02 28.33488 -13.86769 2132 ft 175 kts
2026-05-05 17:02 28.34720 -13.86741 2022 ft 177 kts
2026-05-05 17:03 28.35961 -13.86666 1857 ft 181 kts
2026-05-05 17:03 28.37223 -13.86575 1652 ft 181 kts
2026-05-05 17:03 28.38441 -13.86500 1435 ft 173 kts
2026-05-05 17:03 28.39608 -13.86512 1213 ft 160 kts 359°
2026-05-05 17:04 28.40651 -13.86519 1033 ft 140 kts
2026-05-05 17:04 28.41607 -13.86496 770 ft 136 kts
2026-05-05 17:04 28.42561 -13.86458 470 ft 139 kts
2026-05-05 17:04 28.43526 -13.86444 225 ft 138 kts
2026-05-05 17:05 28.44454 -13.86403 80 ft 127 kts
2026-05-05 17:05 28.45227 -13.86382 86 ft 91 kts
2026-05-05 17:05 28.45611 -13.86370 86 ft 30 kts 358°
2026-05-05 17:05 28.45655 -13.86430 89 ft 11 kts 275°
2026-05-05 17:06 28.45662 -13.86530 89 ft 14 kts 284°
2026-05-05 17:06 28.45707 -13.86621 91 ft 12 kts 276°
2026-05-05 17:06 28.45708 -13.86689 93 ft 7 kts 257°
2026-05-05 17:06 28.45700 -13.86707 92 ft 1 kts 236°
2026-05-05 17:07 28.45693 -13.86713 92 ft 2 kts 211°
2026-05-05 17:07 28.45623 -13.86724 89 ft 21 kts 180°
2026-05-05 17:07 28.45545 -13.86766 88 ft 12 kts 264°
2026-05-05 17:07 28.45547 -13.86827 89 ft 0 kts 280°